Vorticity
17 17 14 22 6 11 14 8 8 17 6 0 6 7 15 35 19 18 -5 39 50 32 19 19 4 7 -1 3 6 7 6 9 7 8 10 12 11 12
14 15 17 17 16 8 3 18 12 1 -4 3 2 3 6 12 14 31 19 11 19 16 23 15 6 11 6 10 14 16 10 9 5 7 11 11 13 13
21 30 28 21 18 13 9 -2 8 4 13 6 5 0 2 8 6 13 21 24 4 5 7 -1 5 8 23 16 13 11 11 11 9 6 8 11 12 11
6 6 9 9 7 4 5 11 10 11 -4 5 6 -5 8 17 7 5 0 0 2 23 22 11 2 10 1 5 13 14 12 11 11 9 4 6 7 11
8 7 9 11 13 16 16 15 7 7 14 34 16 7 19 8 13 19 11 1 -3 -3 6 9 8 11 13 14 16 13 12 11 11 11 10 5 3 4
8 11 10 11 11 11 12 13 14 4 2 1 5 18 17 9 8 13 19 17 12 -1 5 8 8 4 -1 3 8 9 17 15 9 9 10 11 8 4
11 13 15 16 17 17 14 14 13 16 13 14 4 4 22 12 9 9 9 12 19 21 8 -0 1 3 9 8 7 12 16 20 17 15 10 8 7 10
19 16 16 17 18 21 21 17 14 6 1 5 12 17 20 20 16 11 10 9 12 12 15 24 28 21 20 14 11 11 15 20 17 19 15 16 12 11
18 18 19 21 19 17 15 18 17 13 10 7 5 9 14 15 14 15 13 11 7 8 5 3 3 4 3 6 8 5 7 7 13 7 20 23 17 12
18 23 22 23 19 18 19 15 19 19 18 16 17 14 12 12 12 12 12 11 11 12 12 9 12 9 9 9 12 13 10 9 9 12 11 9 10 18
20 16 13 14 18 20 19 18 17 18 17 18 14 11 12 12 13 16 16 16 16 17 16 13 13 14 16 16 16 15 14 12 10 11 13 16 17 12
15 17 19 19 15 14 19 18 16 16 15 16 15 14 14 15 13 11 13 14 13 14 18 16 17 16 16 17 20 20 17 14 15 12 12 14 15 19
12 16 20 19 18 15 14 15 17 16 16 16 15 17 17 16 15 16 16 14 14 15 22 17 16 19 17 18 16 16 17 21 19 19 17 19 16 15
15 19 20 20 18 15 16 16 16 19 19 19 19 20 20 18 17 15 17 27 24 23 16 8 7 12 13 10 11 13 12 15 15 16 8 12 18 21
15 16 16 15 14 14 16 20 24 17 16 19 18 15 14 13 16 17 14 12 13 13 15 16 10 8 8 11 16 18 23 8 6 8 9 14 18 13
14 13 13 14 15 15 19 24 20 18 13 12 10 10 11 10 7 9 6 7 12 14 11 17 21 19 18 18 15 20 19 12 13 5 10 5 2 11
12 12 13 14 17 15 13 17 21 15 12 11 12 11 11 7 9 7 10 11 14 20 15 12 10 11 11 12 21 23 24 18 12 10 12 4 -3 4
12 13 14 17 10 5 11 10 10 18 20 13 14 11 9 8 7 7 8 14 7 16 20 11 15 16 17 16 21 21 27 31 27 19 20 8 11 4
13 14 17 6 7 13 12 13 13 11 16 30 17 14 12 12 9 6 12 7 6 7 4 3 4 8 10 2 -3 9 28 0 10 27 26 14 5 9
15 15 19 7 4 6 9 9 10 13 12 17 29 16 12 11 12 10 10 10 8 4 8 9 9 9 7 8 9 12 11 6 8 10 8 14 13 32
17 16 18 10 3 7 10 10 11 11 11 11 15 25 18 11 10 10 13 12 9 8 8 8 5 5 6 6 5 6 9 10 9 5 7 12 12 11
17 15 15 17 11 4 5 10 10 9 10 11 10 11 15 20 18 15 12 11 9 7 7 9 13 15 14 13 10 11 12 9 6 7 10 12 13 11
10 15 16 15 14 11 8 5 9 10 10 11 10 9 9 10 11 11 14 16 17 19 19 19 17 17 15 14 12 13 16 15 13 11 11 12 12 11
Height
2996 2993 2991 2989 2987 2986 2984 2982 2979 2975 2976 2977 2976 2973 2972 2970 2971 2975 2976 2979 2980 2984 2989 2994 2999 3003 3007 3015 3018 3022 3026 3031 3034 3038 3040 3043 3048 3052
2986 2983 2981 2979 2977 2976 2974 2972 2970 2967 2963 2966 2967 2966 2966 2964 2964 2964 2966 2969 2969 2971 2974 2982 2987 2992 2997 3002 3006 3009 3013 3019 3023 3026 3030 3034 3037 3041
2978 2975 2973 2970 2968 2966 2964 2962 2960 2958 2956 2955 2956 2956 2957 2958 2958 2958 2958 2960 2962 2964 2967 2972 2976 2983 2987 2990 2993 2997 3002 3005 3011 3015 3019 3024 3027 3030
2969 2966 2963 2960 2958 2956 2954 2952 2949 2947 2945 2944 2945 2947 2949 2950 2950 2952 2953 2953 2954 2954 2958 2963 2970 2973 2977 2981 2983 2986 2990 2994 2998 3003 3007 3013 3015 3020
2962 2957 2953 2950 2947 2944 2941 2940 2939 2937 2935 2933 2932 2935 2937 2940 2942 2944 2945 2946 2947 2949 2952 2957 2960 2963 2966 2969 2972 2975 2978 2982 2986 2989 2994 2998 3003 3008
2951 2946 2942 2938 2934 2931 2929 2927 2927 2926 2926 2925 2924 2923 2925 2929 2932 2932 2935 2937 2939 2943 2946 2948 2950 2954 2955 2955 2959 2964 2967 2970 2974 2976 2981 2986 2991 2996
2939 2933 2929 2925 2921 2919 2915 2913 2914 2913 2913 2913 2913 2914 2915 2918 2921 2922 2923 2926 2931 2933 2935 2937 2938 2940 2941 2944 2948 2952 2957 2960 2963 2964 2967 2972 2976 2981
2925 2920 2915 2911 2907 2904 2903 2903 2903 2902 2903 2902 2902 2903 2905 2907 2909 2910 2911 2913 2918 2921 2922 2926 2929 2932 2934 2936 2938 2940 2943 2948 2950 2953 2956 2960 2964 2968
2915 2908 2903 2898 2895 2892 2891 2890 2891 2891 2892 2892 2892 2894 2895 2897 2898 2901 2901 2902 2904 2910 2913 2915 2919 2922 2926 2927 2928 2929 2931 2934 2937 2940 2944 2947 2950 2954
2906 2899 2892 2887 2884 2882 2881 2880 2881 2881 2882 2882 2882 2885 2885 2888 2888 2890 2891 2892 2894 2898 2903 2901 2908 2910 2913 2915 2916 2917 2917 2919 2922 2928 2932 2934 2936 2939
2897 2891 2885 2880 2877 2875 2872 2871 2872 2872 2872 2873 2874 2875 2876 2878 2879 2880 2882 2883 2885 2890 2892 2890 2895 2897 2900 2903 2905 2907 2908 2910 2913 2914 2917 2922 2925 2927
2891 2885 2879 2874 2871 2868 2866 2865 2864 2864 2864 2865 2866 2867 2868 2870 2871 2872 2874 2875 2877 2879 2885 2882 2886 2888 2889 2892 2895 2897 2899 2900 2902 2904 2906 2909 2912 2914
2884 2878 2873 2869 2866 2863 2861 2859 2858 2858 2858 2858 2859 2860 2861 2863 2864 2865 2866 2867 2869 2870 2876 2875 2877 2879 2879 2883 2886 2888 2889 2891 2892 2893 2895 2898 2900 2903
2880 2875 2869 2865 2862 2859 2856 2854 2853 2852 2852 2853 2854 2855 2856 2858 2859 2860 2860 2861 2862 2864 2868 2868 2869 2872 2873 2874 2877 2882 2882 2883 2884 2886 2888 2889 2891 2892
2879 2873 2868 2864 2860 2856 2853 2851 2849 2848 2849 2850 2851 2853 2854 2855 2856 2857 2858 2859 2859 2861 2862 2863 2864 2865 2867 2868 2870 2872 2873 2876 2877 2879 2880 2882 2884 2885
2879 2873 2868 2863 2859 2856 2853 2850 2848 2848 2848 2849 2850 2851 2853 2854 2855 2856 2857 2857 2857 2858 2858 2858 2859 2860 2862 2863 2863 2864 2866 2867 2870 2872 2873 2875 2877 2878
2878 2873 2868 2864 2860 2857 2854 2851 2849 2848 2848 2848 2849 2850 2851 2853 2854 2854 2855 2855 2855 2855 2855 2855 2856 2857 2858 2858 2858 2858 2859 2860 2863 2865 2866 2868 2870 2872
2877 2873 2868 2865 2861 2858 2855 2852 2850 2849 2848 2847 2848 2849 2850 2851 2852 2853 2854 2854 2854 2853 2853 2854 2854 2855 2855 2856 2855 2855 2855 2855 2855 2856 2859 2862 2865 2866
2877 2873 2869 2866 2863 2860 2857 2855 2853 2851 2848 2847 2847 2848 2848 2849 2851 2852 2852 2852 2853 2853 2853 2853 2853 2853 2853 2853 2853 2853 2852 2853 2853 2853 2854 2856 2859 2860
2877 2873 2870 2867 2864 2862 2859 2856 2854 2851 2849 2847 2846 2846 2847 2848 2849 2850 2850 2850 2851 2851 2851 2851 2851 2850 2850 2851 2851 2851 2851 2851 2851 2851 2851 2851 2852 2853
2877 2874 2871 2868 2865 2863 2860 2857 2855 2853 2851 2849 2847 2846 2847 2847 2847 2848 2848 2848 2848 2848 2849 2849 2848 2848 2848 2848 2848 2848 2848 2848 2848 2848 2848 2848 2848 2848
2878 2874 2871 2868 2865 2863 2861 2858 2856 2854 2852 2850 2849 2847 2846 2846 2846 2846 2845 2845 2845 2845 2845 2844 2844 2844 2844 2843 2843 2843 2844 2844 2844 2844 2844 2844 2844 2843
2877 2874 2870 2867 2865 2862 2860 2858 2856 2854 2852 2850 2849 2848 2846 2845 2845 2844 2844 2843 2842 2841 2841 2841 2840 2840 2839 2839 2838 2837 2838 2838 2838 2838 2838 2838 2838 2839